Flag for Switzerland Weather past 2 weeks in Lugano, Switzerland

Now
39 °F

Chilly.


Feels Like: 39 °F
Forecast: 32 / 51 °F
Wind: 2 mph from North

Location: Lugano Airport

Current Time: Mar 2, 2015 at 12:50:57 AM

Latest Report: Mar 2, 2015 at 12:20 AM


Visibility: N/A

Pressure: 29.98 "Hg

Humidity: 87%

Dew point: 36 °F

Location of LuganoLocation

Historic Weather in Lugano — Graph

°F

Lugano temperature yesterday

Maximum temperature yesterday: 57 °F (at 2:50 PM)
Minimum temperature yesterday: 34 °F (at 3:20 AM)
Average temperature yesterday: 44 °F

Past Weeks' High & Low Weather Summary

 TemperatureHumidityPressure
High57 °F (Mar 1, 2:50 PM)100% (Feb 15, 12:50 AM)30.63 "Hg (Feb 15, 12:50 AM)
Low27 °F (Feb 20, 6:50 AM)21% (Feb 24, 10:20 PM)29.56 "Hg (Feb 22, 2:50 AM)
Average41 °F72%30.02 "Hg
* Reported Feb 14 11:20 PM — Mar 1 11:50 PM, Lugano, Weather by CustomWeather, © 2015

Note: Actual official high and low records may vary slightly from our data, if they occured in-between our weather recording intervals... More about our weather records

Advertising

Lugano weather history for previous 24 hours

 ConditionsComfort  
Time TempWeatherWind HumidityBarometerVisibility
11:50 PM
Sun, Mar 1
39 °FClear.2 mph87%29.98 "Hg10 mi
11:20 PM41 °FClear.1 mph76%29.98 "HgN/A
10:50 PM43 °FClear.1 mph76%30.01 "Hg10 mi
10:20 PM43 °FClear.2 mph76%29.98 "Hg10 mi
9:50 PM43 °FClear.1 mph76%29.98 "Hg10 mi
9:20 PM45 °FClear.3 mph71%29.98 "Hg10 mi
8:20 PM45 °FClear.1 mph71%29.98 "Hg10 mi
7:50 PM46 °FClear.1 mph62%29.98 "Hg10 mi
7:20 PM48 °FPassing clouds.3 mph62%29.95 "HgN/A
6:50 PM48 °FClear.5 mph62%29.95 "Hg10 mi
6:20 PM50 °FClear.3 mph54%29.95 "Hg10 mi
5:50 PM52 °FSunny.5 mph54%29.95 "Hg10 mi
5:20 PM54 °FSunny.5 mph51%29.95 "Hg10 mi
4:50 PM55 °FSunny.5 mph44%29.95 "Hg10 mi
4:20 PM55 °FPartly sunny.5 mph41%29.95 "HgN/A
3:50 PM55 °FPartly sunny.5 mph44%29.95 "HgN/A
3:20 PM57 °FScattered clouds.5 mph36%29.95 "HgN/A
2:50 PM57 °FPassing clouds.6 mph36%29.95 "HgN/A
2:20 PM55 °FPassing clouds.8 mph41%29.98 "HgN/A
1:50 PM55 °FPassing clouds.7 mph41%29.98 "HgN/A
1:20 PM55 °FPassing clouds.6 mph41%30.01 "HgN/A
12:50 PM55 °FPassing clouds.6 mph41%30.01 "HgN/A
12:20 PM54 °FPassing clouds.3 mph44%30.04 "HgN/A
11:50 AM52 °FPassing clouds.2 mph47%30.04 "HgN/A
11:20 AM50 °FPassing clouds.1 mph54%30.04 "HgN/A
10:50 AM46 °FPassing clouds.3 mph57%30.04 "HgN/A
10:20 AM45 °FPassing clouds.1 mph66%30.07 "HgN/A
9:50 AM43 °FPartly sunny.No wind71%30.07 "HgN/A
9:20 AM41 °FBroken clouds.1 mph81%30.04 "HgN/A
8:50 AM39 °FScattered clouds.1 mph81%30.04 "HgN/A
8:20 AM37 °FScattered clouds.2 mph87%30.04 "HgN/A
7:50 AM36 °FPassing clouds.3 mph93%30.04 "HgN/A
7:20 AM37 °FSunny.1 mph87%30.04 "Hg10 mi
6:50 AM36 °FPassing clouds.No wind87%30.04 "HgN/A
6:20 AM36 °FPassing clouds.2 mph87%30.04 "HgN/A
5:50 AM36 °FClear.1 mph93%30.04 "HgN/A
5:20 AM36 °FChilly.1 mph87%30.04 "HgN/A
4:50 AM34 °FClear.2 mph93%30.04 "HgN/A
4:20 AM36 °FChilly.2 mph87%30.04 "HgN/A
3:50 AM36 °FClear.2 mph87%30.04 "Hg10 mi
3:20 AM34 °FClear.2 mph93%30.04 "Hg10 mi
2:50 AM36 °FClear.1 mph87%30.07 "HgN/A
2:20 AM36 °FClear.1 mph87%30.07 "Hg10 mi
1:50 AM36 °FClear.3 mph93%30.07 "Hg10 mi
1:20 AM36 °FClear.2 mph87%30.07 "Hg10 mi
12:50 AM37 °FClear.1 mph87%30.07 "Hg10 mi
12:20 AM37 °FClear.1 mph81%30.07 "Hg10 mi
Weather by CustomWeather, © 2015

See weather overviewHow to use our weather pages